FARMINGDALE ARPT, NY current weather conditions

sailwx.info

Wind from 340 at 8 knots

Air temperature -2.0° C
Visibility: greater than 8.7 NM
Dewpoint -12.0° C

Last reported at 2020-Jan-21 16:10 UTC.
Time now 2020-Jan-21 17:12 UTC

Location: N 40°43' W 073°25'.
View on Google Maps.

See reports from other nearby stations

  
Tides and Currents Weather Stations Pressure Air Temp Water Temp Dewpoint Dewpoint Depression Visibility Wind Speed Wind Dir Waves Ship Positions
date/time (UTC)wind fromknots sea level pressurealtimeterstation pressurevisibilityair tempwater tempwave heightnotes
2020-Jan-21 16:10 340 8 8.7-2.0
2020-Jan-21 16:05 350 7 8.7-2.0
2020-Jan-21 16:00 350 6 8.7-2.0
2020-Jan-21 15:55 320 5 8.7-2.0
2020-Jan-21 15:53 330 6 8.7-2.2
2020-Jan-21 15:50 330 6 8.7-2.0
2020-Jan-21 15:45 350 7 8.7-2.0
2020-Jan-21 15:40 350 8 8.7-3.0
2020-Jan-21 15:35 360 8 8.7-3.0
2020-Jan-21 15:30 320 9 8.7-3.0
2020-Jan-21 15:25 320 7 8.7-3.0
2020-Jan-21 15:20 330 8 8.7-3.0
2020-Jan-21 15:15 330 8 8.7-3.0
2020-Jan-21 15:10 330 7 8.7-3.0
2020-Jan-21 15:05 350 7 8.7-3.0
2020-Jan-21 15:00 360 8 8.7-3.0
2020-Jan-21 14:55 010 10 8.7-3.0
2020-Jan-21 14:53 360 8 8.7-3.3
2020-Jan-21 14:50 340 9 8.7-3.0
2020-Jan-21 14:45 010 8 8.7-3.0
2020-Jan-21 14:40 340 9 8.7-4.0
2020-Jan-21 14:35 340 10 8.7-4.0
2020-Jan-21 14:30 350 9 8.7-4.0
2020-Jan-21 14:25 010 11 8.7-4.0
2020-Jan-21 14:20 010 9 8.7-4.0
2020-Jan-21 14:15 360 11 8.7-4.0
2020-Jan-21 14:10 350 8 8.7-4.0
2020-Jan-21 14:05 350 9 8.7-4.0
2020-Jan-21 14:00 360 9 8.7-4.0
2020-Jan-21 13:55 360 8 8.7-4.0
2020-Jan-21 13:53 350 7 8.7-4.4
2020-Jan-21 13:50 010 9 8.7-4.0
2020-Jan-21 13:45 360 11 8.7-4.0
2020-Jan-21 13:40 360 9 8.7-4.0
2020-Jan-21 13:35 350 8 8.7-5.0
2020-Jan-21 13:30 350 7 8.7-5.0
2020-Jan-21 13:25 340 7 8.7-5.0
2020-Jan-21 13:20 330 5 8.7-5.0
2020-Jan-21 13:15 320 6 8.7-6.0
2020-Jan-21 13:10 340 7 8.7-6.0
2020-Jan-21 13:05 340 6 8.7-6.0
2020-Jan-21 13:00 350 5 8.7-6.0
2020-Jan-21 12:55 350 4 8.7-6.0
2020-Jan-21 12:53 340 4 8.7-6.1
2020-Jan-21 12:50 330 3 8.7-6.0
2020-Jan-21 12:45 330 4 8.7-6.0
2020-Jan-21 12:40 340 3 8.7-7.0
2020-Jan-21 12:35 8.7-7.0
2020-Jan-21 12:30 8.7-7.0
2020-Jan-21 12:25 310 3 8.7-7.0
2020-Jan-21 12:20 310 3 8.7-7.0
2020-Jan-21 12:15 300 4 8.7-7.0
2020-Jan-21 12:10 310 3 8.7-7.0
2020-Jan-21 12:05 310 3 8.7-7.0
2020-Jan-21 12:00 300 4 8.7-7.0
2020-Jan-21 11:55 300 4 8.7-7.0
2020-Jan-21 11:53 300 4 8.7-7.2
2020-Jan-21 11:50 300 4 8.7-7.0
2020-Jan-21 11:45 300 4 8.7-7.0
2020-Jan-21 11:40 300 3 8.7-7.0
2020-Jan-21 11:35 300 4 8.7-7.0
2020-Jan-21 11:30 300 4 8.7-7.0
2020-Jan-21 11:25 300 3 8.7-7.0
2020-Jan-21 11:20 310 3 8.7-7.0
2020-Jan-21 11:15 320 3 8.7-7.0
2020-Jan-21 11:10 320 3 8.7-8.0
2020-Jan-21 11:05 310 3 8.7-8.0
2020-Jan-21 11:00 300 3 8.7-8.0
2020-Jan-21 10:55 280 3 8.7-8.0
2020-Jan-21 10:53 280 2 8.7-7.8
2020-Jan-21 10:50 280 3 8.7-8.0
2020-Jan-21 10:45 8.7-8.0
2020-Jan-21 10:40 280 3 8.7-8.0
2020-Jan-21 10:35 290 3 8.7-7.0
2020-Jan-21 10:30 310 3 8.7-7.0
2020-Jan-21 10:25 310 4 8.7-7.0
2020-Jan-21 10:20 8.7-7.0
2020-Jan-21 10:15 300 4 8.7-7.0
2020-Jan-21 10:10 290 3 8.7-7.0
2020-Jan-21 10:05 8.7-7.0
2020-Jan-21 10:00 300 3 8.7-7.0
2020-Jan-21 09:55 280 3 8.7-7.0
2020-Jan-21 09:53 280 2 8.7-7.8
2020-Jan-21 09:50 270 3 8.7-8.0
2020-Jan-21 09:45 270 4 8.7-8.0
2020-Jan-21 09:40 270 4 8.7-8.0
2020-Jan-21 09:35 270 4 8.7-8.0
2020-Jan-21 09:30 270 4 8.7-8.0
2020-Jan-21 09:25 280 3 8.7-8.0
2020-Jan-21 09:20 280 3 8.7-7.0
2020-Jan-21 09:15 270 3 8.7-7.0
2020-Jan-21 09:10 270 3 8.7-7.0
2020-Jan-21 09:05 8.7-7.0
2020-Jan-21 09:00 8.7-7.0
2020-Jan-21 08:55 330 4 8.7-7.0
2020-Jan-21 08:53 320 2 8.7-6.7
2020-Jan-21 08:50 330 4 8.7-7.0
2020-Jan-21 08:45 330 4 8.7-6.0
2020-Jan-21 08:40 340 3 8.7-7.0
2020-Jan-21 08:35 340 3 8.7-6.0
2020-Jan-21 08:30 330 4 8.7-7.0
2020-Jan-21 08:25 340 3 8.7-6.0
2020-Jan-21 08:20 350 4 8.7-6.0
2020-Jan-21 08:15 340 4 8.7-6.0
2020-Jan-21 08:10 330 4 8.7-6.0
2020-Jan-21 08:05 330 3 8.7-6.0
2020-Jan-21 08:00 340 3 8.7-6.0
2020-Jan-21 07:55 350 4 8.7-6.0
2020-Jan-21 07:53 350 4 8.7-6.1
2020-Jan-21 07:50 330 4 8.7-6.0
2020-Jan-21 07:45 330 5 8.7-6.0
2020-Jan-21 07:40 340 6 8.7-6.0
2020-Jan-21 07:35 350 4 8.7-6.0
2020-Jan-21 07:30 340 4 8.7-6.0
2020-Jan-21 07:25 350 3 8.7-6.0
2020-Jan-21 07:20 350 3 8.7-6.0
2020-Jan-21 07:15 350 5 8.7-6.0
2020-Jan-21 07:10 350 4 8.7-6.0
2020-Jan-21 07:05 360 5 8.7-6.0
2020-Jan-21 07:00 360 5 8.7-6.0
2020-Jan-21 06:55 360 5 8.7-6.0
2020-Jan-21 06:53 360 5 8.7-6.1
2020-Jan-21 06:50 360 4 8.7-6.0
2020-Jan-21 06:45 360 4 8.7-6.0
2020-Jan-21 06:40 360 6 8.7-6.0
2020-Jan-21 06:35 350 5 8.7-6.0
2020-Jan-21 06:30 360 5 8.7-6.0
2020-Jan-21 06:25 340 4 8.7-6.0
2020-Jan-21 06:20 350 4 8.7-6.0
2020-Jan-21 06:15 360 4 8.7-6.0
2020-Jan-21 06:10 360 3 8.7-6.0
2020-Jan-21 06:05 8.7-6.0
2020-Jan-21 06:00 8.7-6.0
2020-Jan-21 05:55 350 4 8.7-6.0
2020-Jan-21 05:53 360 2 8.7-5.6
2020-Jan-21 05:50 8.7-6.0
2020-Jan-21 05:45 350 3 8.7-6.0
2020-Jan-21 05:40 340 3 8.7-6.0
2020-Jan-21 05:35 340 4 8.7-5.0
2020-Jan-21 05:30 340 5 8.7-5.0
2020-Jan-21 05:25 330 5 8.7-5.0
2020-Jan-21 05:20 330 3 8.7-5.0
2020-Jan-21 05:15 330 5 8.7-5.0
2020-Jan-21 05:10 330 4 8.7-5.0
2020-Jan-21 05:05 340 4 8.7-5.0
2020-Jan-21 05:00 340 4 8.7-5.0
2020-Jan-21 04:55 350 5 8.7-5.0
2020-Jan-21 04:53 350 6 8.7-5.0
2020-Jan-21 04:50 350 6 8.7-5.0
2020-Jan-21 04:45 350 6 8.7-5.0
2020-Jan-21 04:40 360 5 8.7-6.0
2020-Jan-21 04:35 360 6 8.7-5.0
2020-Jan-21 04:30 360 4 8.7-5.0
2020-Jan-21 04:25 350 4 8.7-5.0
2020-Jan-21 04:20 360 6 8.7-5.0
2020-Jan-21 04:15 360 6 8.7-5.0
2020-Jan-21 04:10 360 7 8.7-5.0
2020-Jan-21 04:05 350 5 8.7-4.0
2020-Jan-21 04:00 340 4 8.7-4.0
2020-Jan-21 03:55 340 3 8.7-4.0
2020-Jan-21 03:53 340 4 8.7-4.4
2020-Jan-21 03:50 350 4 8.7-4.0
2020-Jan-21 03:45 360 3 8.7-5.0
2020-Jan-21 03:40 350 5 8.7-4.0
2020-Jan-21 03:35 360 5 8.7-4.0
2020-Jan-21 03:30 360 5 8.7-4.0
2020-Jan-21 03:25 360 5 8.7-4.0
2020-Jan-21 03:20 350 4 8.7-4.0
2020-Jan-21 03:15 360 4 8.7-4.0
2020-Jan-21 03:10 360 4 8.7-4.0
2020-Jan-21 03:05 360 4 8.7-4.0
2020-Jan-21 03:00 360 4 8.7-4.0
2020-Jan-21 02:55 360 6 8.7-4.0
2020-Jan-21 02:53 360 6 8.7-3.9
2020-Jan-21 02:50 360 6 8.7-4.0
2020-Jan-21 02:45 360 4 8.7-4.0
2020-Jan-21 02:40 350 5 8.7-4.0
2020-Jan-21 02:35 360 3 8.7-4.0
2020-Jan-21 02:30 350 3 8.7-4.0
2020-Jan-21 02:25 350 5 8.7-4.0
2020-Jan-21 02:20 350 6 8.7-4.0
2020-Jan-21 02:15 350 5 8.7-3.0
2020-Jan-21 02:10 360 6 8.7-3.0
2020-Jan-21 02:05 360 7 8.7-3.0
2020-Jan-21 02:00 360 6 8.7-3.0
2020-Jan-21 01:55 360 8 8.7-3.0
2020-Jan-21 01:53 360 7 8.7-3.3
2020-Jan-21 01:50 360 9 8.7-3.0
2020-Jan-21 01:45 360 7 8.7-3.0
2020-Jan-21 01:40 350 5 8.7-3.0
2020-Jan-21 01:35 360 6 8.7-3.0
2020-Jan-21 01:30 360 7 8.7-3.0
2020-Jan-21 01:25 360 6 8.7-3.0
2020-Jan-21 01:20 350 7 8.7-3.0
2020-Jan-21 01:15 350 7 8.7-3.0
2020-Jan-21 01:10 360 9 8.7-3.0
2020-Jan-21 01:05 350 6 8.7-3.0
2020-Jan-21 01:00 360 8 8.7-3.0
2020-Jan-21 00:55 360 7 8.7-3.0
2020-Jan-21 00:53 360 6 8.7-2.8
2020-Jan-21 00:50 360 8 8.7-3.0
2020-Jan-21 00:45 350 8 8.7-3.0
2020-Jan-21 00:40 350 7 8.7-3.0
2020-Jan-21 00:35 360 8 8.7-3.0
2020-Jan-21 00:30 360 7 8.7-3.0
2020-Jan-21 00:25 350 6 8.7-3.0
2020-Jan-21 00:20 360 7 8.7-3.0
2020-Jan-21 00:15 360 7 8.7-3.0
2020-Jan-21 00:10 360 5 8.7-3.0
2020-Jan-21 00:05 350 5 8.7-3.0
2020-Jan-21 00:00 360 4 8.7-3.0
2020-Jan-20 23:55 360 5 8.7-2.0
2020-Jan-20 23:53 360 6 8.7-2.2
2020-Jan-20 23:50 360 6 8.7-2.0
2020-Jan-20 23:45 360 6 8.7-2.0
2020-Jan-20 23:40 360 6 8.7-2.0
2020-Jan-20 23:35 360 6 8.7-2.0
2020-Jan-20 23:30 350 4 8.7-2.0
2020-Jan-20 23:25 350 4 8.7-2.0
2020-Jan-20 23:20 010 4 8.7-3.0
2020-Jan-20 23:15 010 5 8.7-3.0
2020-Jan-20 23:10 020 3 8.7-3.0
2020-Jan-20 23:05 020 4 8.7-3.0
2020-Jan-20 23:00 020 4 8.7-2.0
2020-Jan-20 22:55 360 6 8.7-2.0
2020-Jan-20 22:53 010 2 8.7-1.7
2020-Jan-20 22:50 340 5 8.7-2.0
2020-Jan-20 22:45 360 6 8.7-2.0
2020-Jan-20 22:40 360 6 8.7-2.0
2020-Jan-20 22:35 360 6 8.7-2.0
2020-Jan-20 22:30 360 7 8.7-2.0
2020-Jan-20 22:25 350 6 8.7-2.0
2020-Jan-20 22:20 350 6 8.7-2.0
2020-Jan-20 22:15 350 7 8.7-2.0
2020-Jan-20 22:10 350 7 8.7-2.0
2020-Jan-20 22:05 350 9 gusting 14 8.7-2.0
2020-Jan-20 22:00 360 10 8.7-2.0
2020-Jan-20 21:55 340 9 8.7-1.0
2020-Jan-20 21:53 350 8 gusting 15 8.7-1.1
2020-Jan-20 21:50 350 10 8.7-1.0
2020-Jan-20 21:45 340 11 8.7-1.0
2020-Jan-20 21:40 350 8 8.7-1.0
2020-Jan-20 21:35 340 12 gusting 17 8.7-1.0
2020-Jan-20 21:30 350 11 8.7-1.0
2020-Jan-20 21:25 350 12 8.7-1.0
2020-Jan-20 21:20 350 10 8.7-1.0
2020-Jan-20 21:15 340 9 8.7-1.0
2020-Jan-20 21:10 340 9 8.7-1.0
2020-Jan-20 21:05 340 10 gusting 15 8.7-1.0
2020-Jan-20 21:00 350 10 8.7-1.0
2020-Jan-20 20:55 350 13 gusting 18 8.7-1.0
2020-Jan-20 20:53 350 13 gusting 20 8.7-0.6
2020-Jan-20 20:50 350 10 gusting 17 8.7-1.0
2020-Jan-20 20:45 360 13 gusting 19 8.7-1.0
2020-Jan-20 20:40 350 15 8.7-1.0
2020-Jan-20 20:35 350 12 8.7-1.0
2020-Jan-20 20:30 360 12 8.7-1.0
2020-Jan-20 20:25 360 14 gusting 20 8.7-1.0
2020-Jan-20 20:20 360 13 8.7-1.0
2020-Jan-20 20:15 350 9 gusting 15 8.7-1.0
2020-Jan-20 20:10 350 14 8.7-1.0
2020-Jan-20 20:05 360 15 8.7-1.0
2020-Jan-20 20:00 350 13 gusting 19 8.7-1.0
2020-Jan-20 19:55 330 10 8.7-1.0
2020-Jan-20 19:53 340 12 gusting 20 8.7-0.6
2020-Jan-20 19:50 340 14 gusting 20 8.7-1.0
2020-Jan-20 19:45 350 13 gusting 19 8.7-1.0
2020-Jan-20 19:40 360 15 gusting 20 8.7-1.0
2020-Jan-20 19:35 360 14 8.7-1.0
2020-Jan-20 19:30 350 14 8.7-1.0
2020-Jan-20 19:25 360 12 8.7-1.0
2020-Jan-20 19:20 010 17 8.7-1.0
2020-Jan-20 19:15 350 16 8.7-1.0
2020-Jan-20 19:10 350 13 8.7-1.0
2020-Jan-20 19:05 350 18 gusting 23 8.7-1.0
2020-Jan-20 19:00 340 13 8.7-1.0
2020-Jan-20 18:55 350 12 8.7-1.0
2020-Jan-20 18:53 350 13 gusting 22 8.7-0.6
2020-Jan-20 18:50 350 16 gusting 23 8.7-1.0
2020-Jan-20 18:45 350 9 gusting 14 8.7-1.0
2020-Jan-20 18:40 340 17 8.7-1.0
2020-Jan-20 18:35 360 18 8.7-1.0
2020-Jan-20 18:30 360 15 8.7-1.0
2020-Jan-20 18:25 350 17 8.7-1.0
2020-Jan-20 18:20 350 13 8.7-1.0
2020-Jan-20 18:15 350 16 8.7-1.0
2020-Jan-20 18:10 350 17 gusting 27 8.7-1.0
2020-Jan-20 18:05 330 15 gusting 20 8.7-1.0
2020-Jan-20 18:00 340 17 8.7-2.0
2020-Jan-20 17:55 340 17 gusting 22 8.7-1.0
2020-Jan-20 17:53 340 11 gusting 21 8.7-1.1
2020-Jan-20 17:50 350 15 8.7-1.0
2020-Jan-20 17:45 340 13 gusting 19 8.7-1.0
2020-Jan-20 17:40 360 18 8.7-1.0
2020-Jan-20 17:35 350 14 8.7-2.0
2020-Jan-20 17:30 330 15 8.7-1.0
2020-Jan-20 17:25 350 11 gusting 18 8.7-1.0
2020-Jan-20 17:20 350 13 gusting 18 8.7-2.0
2020-Jan-20 17:15 350 17 gusting 25 8.7-2.0
2020-Jan-20 17:10 340 16 8.7-2.0
2020-Jan-20 17:05 360 12 gusting 20 8.7-2.0
2020-Jan-20 17:00 340 13 8.7-2.0
2020-Jan-20 16:55 340 11 8.7-2.0
2020-Jan-20 16:53 340 14 gusting 25 8.7-2.2
2020-Jan-20 16:50 350 15 gusting 24 8.7-2.0
2020-Jan-20 16:45 350 14 8.7-2.0
2020-Jan-20 16:40 350 12 gusting 17 8.7-2.0
2020-Jan-20 16:35 330 16 8.7-2.0
2020-Jan-20 16:30 340 15 8.7-2.0
2020-Jan-20 16:25 350 13 8.7-2.0
2020-Jan-20 16:20 360 12 8.7-3.0
2020-Jan-20 16:15 360 18 gusting 24 8.7-3.0
2020-Jan-20 16:10 340 16 8.7-3.0
2020-Jan-20 16:05 340 12 8.7-3.0
2020-Jan-20 16:00 360 17 gusting 23 8.7-3.0
2020-Jan-20 15:55 350 15 gusting 20 8.7-3.0
2020-Jan-20 15:53 360 17 gusting 24 8.7-3.3
2020-Jan-20 15:50 350 16 8.7-3.0
2020-Jan-20 15:45 350 16 8.7-3.0
2020-Jan-20 15:40 350 15 8.7-3.0
2020-Jan-20 15:35 340 14 gusting 23 8.7-4.0
2020-Jan-20 15:30 340 14 8.7-4.0
2020-Jan-20 15:25 350 17 8.7-3.0
2020-Jan-20 15:20 350 15 gusting 23 8.7-4.0
2020-Jan-20 15:15 350 13 gusting 19 8.7-4.0
2020-Jan-20 15:10 350 14 8.7-4.0
2020-Jan-20 15:05 350 15 gusting 22 8.7-4.0
2020-Jan-20 15:00 340 16 8.7-4.0
2020-Jan-20 14:55 330 16 8.7-4.0
2020-Jan-20 14:53 330 13 gusting 25 8.7-4.4
2020-Jan-20 14:50 340 15 gusting 20 8.7-4.0
2020-Jan-20 14:45 340 15 8.7-4.0
2020-Jan-20 14:40 340 15 8.7-4.0
2020-Jan-20 14:35 360 12 gusting 22 8.7-4.0
2020-Jan-20 14:30 350 12 gusting 17 8.7-4.0
2020-Jan-20 14:25 340 14 8.7-4.0
2020-Jan-20 14:20 340 13 8.7-5.0
2020-Jan-20 14:15 340 11 8.7-5.0
2020-Jan-20 14:10 350 15 8.7-5.0
2020-Jan-20 14:05 330 11 gusting 19 8.7-5.0
2020-Jan-20 14:00 350 11 8.7-5.0
2020-Jan-20 13:55 350 13 8.7-5.0
2020-Jan-20 13:53 340 12 gusting 20 8.7-5.0
2020-Jan-20 13:50 340 12 8.7-5.0
2020-Jan-20 13:45 330 16 8.7-6.0
2020-Jan-20 13:40 340 11 gusting 16 8.7-6.0
2020-Jan-20 13:35 340 12 gusting 17 8.7-6.0
2020-Jan-20 13:30 340 12 8.7-6.0
2020-Jan-20 13:25 350 11 gusting 16 8.7-6.0
2020-Jan-20 13:20 350 13 8.7-6.0
2020-Jan-20 13:15 350 10 8.7-6.0
2020-Jan-20 13:10 340 11 8.7-6.0
2020-Jan-20 13:05 350 11 8.7-6.0
2020-Jan-20 13:00 350 12 8.7-6.0
2020-Jan-20 12:55 360 14 8.7-6.0
2020-Jan-20 12:53 360 13 gusting 19 8.7-6.1
2020-Jan-20 12:50 360 15 8.7-6.0
2020-Jan-20 12:45 350 12 8.7-6.0
2020-Jan-20 12:40 340 12 gusting 18 8.7-6.0
2020-Jan-20 12:35 350 12 8.7-6.0
2020-Jan-20 12:30 350 12 8.7-6.0
2020-Jan-20 12:25 350 14 gusting 19 8.7-6.0
2020-Jan-20 12:20 360 16 8.7-6.0
2020-Jan-20 12:15 360 11 gusting 19 8.7-6.0
2020-Jan-20 12:10 350 13 8.7-6.0
2020-Jan-20 12:05 340 15 8.7-6.0
2020-Jan-20 12:00 340 14 gusting 19 8.7-6.0
2020-Jan-20 11:55 350 12 8.7-6.0
2020-Jan-20 11:53 350 9 gusting 18 8.7-6.1
2020-Jan-20 11:50 340 9 8.7-6.0
2020-Jan-20 11:45 350 9 8.7-6.0
2020-Jan-20 11:40 360 7 8.7-6.0
2020-Jan-20 11:35 340 9 8.7-6.0
2020-Jan-20 11:30 340 11 8.7-6.0
2020-Jan-20 11:25 350 11 gusting 16 8.7-6.0
2020-Jan-20 11:20 350 10 8.7-6.0
2020-Jan-20 11:15 350 13 gusting 19 8.7-6.0
2020-Jan-20 11:10 360 12 8.7-6.0
2020-Jan-20 11:05 350 14 8.7-6.0
2020-Jan-20 11:00 350 13 8.7-6.0
2020-Jan-20 10:55 350 10 8.7-6.0
2020-Jan-20 10:53 360 14 gusting 19 8.7-5.6
2020-Jan-20 10:50 350 12 gusting 19 8.7-6.0
2020-Jan-20 10:45 340 9 8.7-6.0
2020-Jan-20 10:40 350 10 8.7-6.0
2020-Jan-20 10:35 350 9 gusting 14 8.7-6.0
2020-Jan-20 10:30 360 10 8.7-6.0
2020-Jan-20 10:25 360 8 8.7-6.0
2020-Jan-20 10:20 350 7 8.7-6.0
2020-Jan-20 10:15 350 9 8.7-6.0
2020-Jan-20 10:10 350 9 8.7-6.0
2020-Jan-20 10:05 360 10 8.7-6.0
2020-Jan-20 10:00 350 9 8.7-6.0
2020-Jan-20 09:55 360 7 8.7-6.0
2020-Jan-20 09:53 350 7 gusting 17 8.7-5.6
2020-Jan-20 09:50 360 11 8.7-6.0
2020-Jan-20 09:45 350 11 8.7-6.0
2020-Jan-20 09:40 360 10 8.7-6.0
2020-Jan-20 09:35 360 12 8.7-6.0
2020-Jan-20 09:30 350 14 gusting 19 8.7-6.0
2020-Jan-20 09:25 350 13 gusting 18 8.7-5.0
2020-Jan-20 09:20 350 9 8.7-5.0
2020-Jan-20 09:15 360 12 8.7-5.0
2020-Jan-20 09:10 360 12 8.7-5.0
2020-Jan-20 09:05 360 11 8.7-5.0
2020-Jan-20 09:00 010 15 8.7-4.0
2020-Jan-20 08:55 350 12 8.7-4.0
2020-Jan-20 08:53 360 11 8.7-4.4
2020-Jan-20 08:50 360 14 8.7-4.0
2020-Jan-20 08:45 010 12 8.7-4.0
2020-Jan-20 08:40 340 10 8.7-4.0
2020-Jan-20 08:35 330 13 8.7-4.0
2020-Jan-20 08:30 330 11 8.7-4.0
2020-Jan-20 08:25 340 10 8.7-4.0
2020-Jan-20 08:20 340 13 gusting 19 8.7-4.0
2020-Jan-20 08:15 340 13 gusting 18 8.7-4.0
2020-Jan-20 08:10 340 13 gusting 18 8.7-4.0
2020-Jan-20 08:05 350 10 gusting 15 8.7-4.0
2020-Jan-20 08:00 340 14 8.7-3.0
2020-Jan-20 07:55 340 14 gusting 19 8.7-4.0
2020-Jan-20 07:53 340 14 gusting 20 8.7-3.9
2020-Jan-20 07:50 340 13 gusting 18 8.7-4.0
2020-Jan-20 07:45 340 12 8.7-4.0
2020-Jan-20 07:40 330 12 8.7-4.0
2020-Jan-20 07:35 330 9 8.7-3.0
2020-Jan-20 07:30 330 13 8.7-3.0
2020-Jan-20 07:25 320 11 8.7-3.0
2020-Jan-20 07:20 330 10 8.7-3.0
2020-Jan-20 07:15 330 12 gusting 17 8.7-3.0
2020-Jan-20 07:10 340 12 gusting 18 8.7-3.0
2020-Jan-20 07:05 330 11 8.7-3.0
2020-Jan-20 07:00 340 13 8.7-3.0
2020-Jan-20 06:55 340 9 8.7-3.0
2020-Jan-20 06:53 340 8 gusting 17 8.7-2.8
2020-Jan-20 06:50 340 8 8.7-3.0
2020-Jan-20 06:45 320 11 8.7-3.0
2020-Jan-20 06:40 330 9 gusting 14 8.7-3.0
2020-Jan-20 06:35 330 11 8.7-3.0
2020-Jan-20 06:30 330 11 8.7-3.0
2020-Jan-20 06:25 320 10 gusting 17 8.7-3.0
2020-Jan-20 06:20 320 11 8.7-3.0
2020-Jan-20 06:15 330 10 8.7-3.0
2020-Jan-20 06:10 330 12 gusting 19 8.7-3.0
2020-Jan-20 06:05 330 13 gusting 19 8.7-2.0
2020-Jan-20 06:00 320 13 gusting 18 8.7-2.0
2020-Jan-20 05:55 320 12 gusting 17 8.7-2.0
2020-Jan-20 05:53 320 13 gusting 19 8.7-2.2
2020-Jan-20 05:50 310 10 8.7-2.0
2020-Jan-20 05:45 320 13 8.7-2.0
2020-Jan-20 05:40 310 9 gusting 17 8.7-2.0
2020-Jan-20 05:35 310 12 8.7-2.0
2020-Jan-20 05:30 310 11 8.7-2.0
2020-Jan-20 05:25 310 12 8.7-2.0
2020-Jan-20 05:20 300 12 gusting 17 8.7-2.0
2020-Jan-20 05:15 300 15 gusting 20 8.7-2.0
2020-Jan-20 05:10 310 13 8.7-2.0
2020-Jan-20 05:05 300 14 gusting 22 8.7-2.0
2020-Jan-20 05:00 310 15 8.7-2.0
2020-Jan-20 04:55 310 17 gusting 23 8.7-2.0
2020-Jan-20 04:53 310 12 gusting 26 8.7-1.7
2020-Jan-20 04:50 310 14 gusting 20 8.7-1.0
2020-Jan-20 04:45 310 12 8.7-1.0
2020-Jan-20 04:40 310 15 gusting 20 8.7-1.0
2020-Jan-20 04:35 320 15 gusting 20 8.7-1.0
2020-Jan-20 04:30 330 18 8.7-1.0
2020-Jan-20 04:25 330 19 8.7-0.0
2020-Jan-20 04:20 330 17 gusting 22 8.7-0.0
2020-Jan-20 04:15 340 13 8.7-0.0
2020-Jan-20 04:10 320 12 gusting 18 8.7-0.0
2020-Jan-20 04:05 320 11 8.7-0.0
2020-Jan-20 04:00 320 12 8.7 1.0
2020-Jan-20 03:55 310 13 8.7 1.0
2020-Jan-20 03:53 310 9 gusting 15 8.7 0.6
2020-Jan-20 03:50 320 9 8.7 1.0
2020-Jan-20 03:45 320 11 8.7 1.0
2020-Jan-20 03:40 320 12 gusting 17 8.7 1.0
2020-Jan-20 03:35 320 14 gusting 19 8.7 1.0
2020-Jan-20 03:30 310 11 gusting 16 8.7 1.0
2020-Jan-20 03:25 320 13 8.7 1.0
2020-Jan-20 03:20 320 14 gusting 19 8.7 1.0
2020-Jan-20 03:15 320 11 8.7 1.0
2020-Jan-20 03:10 320 12 8.7 1.0
2020-Jan-20 03:05 310 12 gusting 20 8.7 1.0
2020-Jan-20 03:00 310 10 8.7 1.0
2020-Jan-20 02:55 310 8 8.7 1.0
2020-Jan-20 02:53 300 7 8.7 0.6
2020-Jan-20 02:50 300 7 8.7 1.0
2020-Jan-20 02:45 310 7 8.7 1.0
2020-Jan-20 02:40 310 8 8.7 1.0
2020-Jan-20 02:35 300 12 8.7 1.0
2020-Jan-20 02:30 300 12 8.7 1.0
2020-Jan-20 02:25 300 9 gusting 15 8.7 1.0
2020-Jan-20 02:20 300 7 8.7 1.0
2020-Jan-20 02:15 300 9 8.7 1.0
2020-Jan-20 02:10 300 10 gusting 15 8.7 1.0
2020-Jan-20 02:05 300 10 8.7 1.0
2020-Jan-20 02:00 290 9 8.7 1.0
2020-Jan-20 01:55 300 9 8.7 1.0
2020-Jan-20 01:53 300 9 gusting 15 8.7 1.1
2020-Jan-20 01:50 310 9 gusting 14 8.7 1.0
2020-Jan-20 01:45 310 7 8.7 1.0
2020-Jan-20 01:40 300 9 gusting 14 8.7 1.0
2020-Jan-20 01:35 310 13 gusting 19 8.7 1.0
2020-Jan-20 01:30 310 9 gusting 14 8.7 1.0
2020-Jan-20 01:25 310 9 gusting 17 8.7 1.0
2020-Jan-20 01:20 300 10 8.7 1.0
2020-Jan-20 01:15 300 11 8.7 1.0
2020-Jan-20 01:10 310 9 8.7 2.0
2020-Jan-20 01:05 320 10 8.7 2.0
2020-Jan-20 01:00 300 16 gusting 23 8.7 2.0
2020-Jan-20 00:55 300 11 8.7 2.0
2020-Jan-20 00:53 310 8 8.7 1.7
2020-Jan-20 00:50 310 9 8.7 2.0
2020-Jan-20 00:45 300 10 8.7 2.0
2020-Jan-20 00:40 310 11 8.7 2.0
2020-Jan-20 00:35 300 12 gusting 17 8.7 2.0
2020-Jan-20 00:30 300 11 gusting 18 8.7 2.0
2020-Jan-20 00:25 300 9 8.7 2.0
2020-Jan-20 00:20 310 8 8.7 2.0
2020-Jan-20 00:15 310 8 8.7 2.0
2020-Jan-20 00:10 310 8 8.7 2.0
2020-Jan-20 00:05 310 8 8.7 2.0
2020-Jan-20 00:00 310 8 8.7 2.0
2020-Jan-19 23:55 300 11 8.7 2.0
2020-Jan-19 23:53 300 8 gusting 14 8.7 2.2
2020-Jan-19 23:50 300 8 8.7 2.0
2020-Jan-19 23:45 300 6 8.7 2.0
2020-Jan-19 23:40 310 10 8.7 2.0
2020-Jan-19 23:35 310 7 8.7 3.0
2020-Jan-19 23:30 310 8 8.7 2.0
2020-Jan-19 23:25 300 7 8.7 3.0
2020-Jan-19 23:20 310 8 8.7 3.0
2020-Jan-19 23:15 310 9 gusting 17 8.7 3.0
2020-Jan-19 23:10 320 8 8.7 3.0
2020-Jan-19 23:05 320 12 8.7 3.0
2020-Jan-19 23:00 320 9 8.7 3.0
2020-Jan-19 22:55 320 12 8.7 3.0
2020-Jan-19 22:53 320 13 gusting 20 8.7 3.3
2020-Jan-19 22:50 320 11 gusting 17 8.7 3.0
2020-Jan-19 22:45 320 11 8.7 3.0
2020-Jan-19 22:40 320 13 8.7 3.0
2020-Jan-19 22:35 330 13 gusting 18 8.7 4.0
2020-Jan-19 22:30 320 11 8.7 4.0
2020-Jan-19 22:25 330 11 8.7 4.0
2020-Jan-19 22:20 330 11 gusting 16 8.7 4.0
2020-Jan-19 22:15 330 11 gusting 17 8.7 4.0
2020-Jan-19 22:10 330 14 gusting 19 8.7 4.0
2020-Jan-19 22:05 330 14 gusting 19 8.7 4.0
2020-Jan-19 22:00 320 10 8.7 4.0
2020-Jan-19 21:55 320 8 8.7 4.0
2020-Jan-19 21:53 330 9 gusting 15 8.7 4.4
2020-Jan-19 21:50 320 7 8.7 4.0
2020-Jan-19 21:45 320 10 8.7 4.0
2020-Jan-19 21:40 320 9 8.7 4.0
2020-Jan-19 21:35 320 11 gusting 17 8.7 5.0
2020-Jan-19 21:30 330 10 8.7 5.0
2020-Jan-19 21:25 310 13 8.7 5.0
2020-Jan-19 21:20 320 12 8.7 6.0
2020-Jan-19 21:15 320 11 8.7 6.0
2020-Jan-19 21:10 320 9 8.7 6.0
2020-Jan-19 21:05 320 8 8.7 6.0
2020-Jan-19 21:00 320 9 gusting 14 8.7 6.0
2020-Jan-19 20:55 310 11 8.7 6.0
2020-Jan-19 20:53 320 7 gusting 18 8.7 5.6
2020-Jan-19 20:50 320 14 8.7 6.0
2020-Jan-19 20:45 320 8 8.7 6.0
2020-Jan-19 20:40 320 7 8.7 6.0
2020-Jan-19 20:35 320 8 8.7 6.0
2020-Jan-19 20:30 320 12 8.7 6.0
2020-Jan-19 20:25 300 9 8.7 6.0
2020-Jan-19 20:20 310 10 8.7 7.0
2020-Jan-19 20:15 300 10 8.7 7.0
2020-Jan-19 20:10 300 9 8.7 7.0
2020-Jan-19 20:05 300 10 8.7 7.0
2020-Jan-19 20:00 300 9 gusting 14 8.7 6.0
2020-Jan-19 19:55 300 13 8.7 6.0
2020-Jan-19 19:53 310 14 gusting 20 8.7 6.7
2020-Jan-19 19:50 290 10 8.7 7.0
2020-Jan-19 19:45 300 8 8.7 7.0
2020-Jan-19 19:40 300 8 8.7 6.0
2020-Jan-19 19:35 300 13 8.7 6.0
2020-Jan-19 19:30 310 9 8.7 6.0
2020-Jan-19 19:25 310 7 8.7 6.0
2020-Jan-19 19:20 310 7 8.7 6.0
2020-Jan-19 19:15 310 11 gusting 17 8.7 6.0
2020-Jan-19 19:10 310 9 8.7 6.0
2020-Jan-19 19:05 310 11 8.7 6.0
2020-Jan-19 19:00 310 11 8.7 6.0
2020-Jan-19 18:55 320 13 gusting 20 8.7 6.0
2020-Jan-19 18:53 320 12 gusting 25 8.7 6.1
2020-Jan-19 18:50 310 13 8.7 6.0
2020-Jan-19 18:45 310 14 gusting 19 8.7 6.0
2020-Jan-19 18:40 330 13 gusting 18 8.7 7.0
2020-Jan-19 18:35 330 14 8.7 7.0
2020-Jan-19 18:30 330 12 gusting 22 8.7 7.0
2020-Jan-19 18:25 290 11 8.7 7.0
2020-Jan-19 18:20 320 10 gusting 15 8.7 7.0
2020-Jan-19 18:15 320 8 8.7 7.0
2020-Jan-19 18:10 320 8 8.7 7.0
2020-Jan-19 18:05 320 8 8.7 6.0
2020-Jan-19 18:00 300 9 8.7 6.0
2020-Jan-19 17:55 320 10 8.7 6.0
2020-Jan-19 17:53 320 7 8.7 5.6
2020-Jan-19 17:50 320 10 8.7 6.0
2020-Jan-19 17:45 320 9 8.7 6.0
2020-Jan-19 17:40 320 12 gusting 17 8.7 6.0
2020-Jan-19 17:35 330 14 8.7 7.0
2020-Jan-19 17:30 310 12 8.7 7.0
2020-Jan-19 17:25 290 10 8.7 7.0
2020-Jan-19 17:20 290 13 8.7 7.0
2020-Jan-19 17:15 290 13 8.7 7.0
2020-Jan-19 17:10 290 12 8.7 7.0
2020-Jan-19 17:05 300 10 8.7 7.0
2020-Jan-19 17:00 300 17 gusting 22 8.7 7.0